| time (UTC) | temp C | wind direction | speed KPH | gust KPH | rain 1hr cm | rain 24hr cm | rain mn cm | humidity % | barometer mb |
| 20260502182557 | 22 | 28 | 9.7 | 16.1 | 0.00 | 0.00 | 0.00 | 46 | 1017.0 |
| 20260502182056 | 22 | 46 | 16.1 | 22.5 | 0.00 | 0.00 | 0.00 | 45 | 1017.0 |
| 20260502181557 | 22 | 14 | 9.7 | 22.5 | 0.00 | 0.00 | 0.00 | 45 | 1017.0 |
| 20260502181057 | 22 | 10 | 11.3 | 19.3 | 0.00 | 0.00 | 0.00 | 45 | 1017.0 |
| 20260502180557 | 22 | 7 | 8.0 | 19.3 | 0.00 | 0.00 | 0.00 | 43 | 1017.0 |
| 20260502164056 | 20 | 27 | 14.5 | 32.2 | 0.00 | 0.00 | 0.00 | 49 | 1018.0 |
| 20260502163556 | 20 | 47 | 19.3 | 19.3 | 0.00 | 0.00 | 0.00 | 52 | 1018.0 |
| 20260502163057 | 20 | 315 | 9.7 | 20.9 | 0.00 | 0.00 | 0.00 | 51 | 1018.0 |
| 20260502162556 | 20 | 32 | 11.3 | 24.1 | 0.00 | 0.00 | 0.00 | 53 | 1018.0 |
| 20260502162056 | 20 | 16 | 3.2 | 17.7 | 0.00 | 0.00 | 0.00 | 56 | 1018.0 |
| 20260502161556 | 20 | 346 | 11.3 | 17.7 | 0.00 | 0.00 | 0.00 | 55 | 1018.0 |
| 20260502161056 | 20 | 1 | 8.0 | 24.1 | 0.00 | 0.00 | 0.00 | 57 | 1018.0 |
| 20260502160556 | 20 | 42 | 8.0 | 20.9 | 0.00 | 0.00 | 0.00 | 59 | 1017.0 |
| 20260502152056 | 18 | 19 | 6.4 | 30.6 | 0.00 | 0.00 | 0.00 | 67 | 1017.0 |
| 20260502151557 | 18 | 26 | 11.3 | 16.1 | 0.00 | 0.00 | 0.00 | 68 | 1018.0 |
| 20260502151056 | 18 | 19 | 14.5 | 19.3 | 0.00 | 0.00 | 0.00 | 68 | 1018.0 |
| 20260502150556 | 18 | 39 | 8.0 | 24.1 | 0.00 | 0.00 | 0.00 | 68 | 1018.0 |
| 20260502130558 | 13 | 11 | 8.0 | 11.3 | 0.00 | 0.00 | 0.00 | 87 | 1016.0 |
| 20260502123556 | 13 | 8 | 4.8 | 12.9 | 0.00 | 0.00 | 0.00 | 90 | 1016.0 |
| 20260502123056 | 12 | 24 | 4.8 | 8.0 | 0.00 | 0.00 | 0.00 | 91 | 1016.0 |
| 20260502122556 | 12 | 322 | 8.0 | 9.7 | 0.00 | 0.00 | 0.00 | 91 | 1016.0 |
| 20260502122056 | 12 | 36 | 8.0 | 11.3 | 0.00 | 0.00 | 0.00 | 92 | 1016.0 |
| 20260502121556 | 12 | 14 | 4.8 | 12.9 | 0.00 | 0.00 | 0.00 | 92 | 1015.0 |
| 20260502121056 | 12 | 352 | 6.4 | 11.3 | 0.00 | 0.00 | 0.00 | 92 | 1016.0 |
| 20260502120556 | 12 | 40 | 4.8 | 11.3 | 0.00 | 0.00 | 0.00 | 92 | 1015.0 |
| 20260502115556 | 12 | 358 | 8.0 | 11.3 | 0.00 | 0.00 | 0.00 | 91 | 1015.0 |
| 20260502115056 | 12 | 16 | 3.2 | 8.0 | 0.00 | 0.00 | 0.00 | 90 | 1015.0 |
| 20260502114557 | 12 | 329 | 6.4 | 11.3 | 0.00 | 0.00 | 0.00 | 90 | 1015.0 |
| 20260502114056 | 12 | 319 | 6.4 | 14.5 | 0.00 | 0.00 | 0.00 | 90 | 1015.0 |
| 20260502113556 | 12 | 357 | 3.2 | 14.5 | 0.00 | 0.00 | 0.00 | 90 | 1015.0 |
| 20260502113056 | 12 | 19 | 3.2 | 14.5 | 0.00 | 0.00 | 0.00 | 90 | 1015.0 |
| 20260502112556 | 12 | 344 | 8.0 | 11.3 | 0.00 | 0.00 | 0.00 | 90 | 1015.0 |
| 20260502112056 | 12 | 318 | 6.4 | 9.7 | 0.00 | 0.00 | 0.00 | 90 | 1015.0 |
| 20260502111556 | 12 | 352 | 9.7 | 9.7 | 0.00 | 0.00 | 0.00 | 90 | 1015.0 |
| 20260502111057 | 12 | 303 | 3.2 | 9.7 | 0.00 | 0.00 | 0.00 | 89 | 1015.0 |
| 20260502110556 | 12 | 14 | 4.8 | 9.7 | 0.00 | 0.00 | 0.00 | 89 | 1015.0 |
| 20260502110056 | 12 | 4 | 3.2 | 9.7 | 0.00 | 0.00 | 0.00 | 89 | 1015.0 |
| 20260502105556 | 12 | 42 | 6.4 | 11.3 | 0.00 | 0.00 | 0.00 | 89 | 1015.0 |
| 20260502105056 | 12 | 2 | 3.2 | 9.7 | 0.00 | 0.00 | 0.00 | 89 | 1015.0 |
| 20260502104556 | 12 | 355 | 3.2 | 8.0 | 0.00 | 0.00 | 0.00 | 88 | 1015.0 |
| 20260502104056 | 12 | 3 | 3.2 | 11.3 | 0.00 | 0.00 | 0.00 | 88 | 1015.0 |
| 20260502103556 | 12 | 344 | 4.8 | 6.4 | 0.00 | 0.00 | 0.00 | 86 | 1014.0 |
| 20260502103056 | 12 | 5 | 3.2 | 11.3 | 0.00 | 0.00 | 0.00 | 85 | 1014.0 |
| 20260502102559 | 12 | 28 | 8.0 | 14.5 | 0.00 | 0.00 | 0.00 | 86 | 1014.0 |
| 20260502102056 | 12 | 338 | 4.8 | 9.7 | 0.00 | 0.00 | 0.00 | 86 | 1014.0 |
| 20260502101557 | 12 | 28 | 0.0 | 4.8 | 0.00 | 0.00 | 0.00 | 86 | 1014.0 |
| 20260502101056 | 12 | 22 | 3.2 | 12.9 | 0.00 | 0.00 | 0.00 | 86 | 1014.0 |
| 20260502100558 | 12 | 24 | 6.4 | 12.9 | 0.00 | 0.00 | 0.00 | 86 | 1014.0 |
| 20260502091057 | 12 | 15 | 9.7 | 12.9 | 0.00 | 0.00 | 0.00 | 86 | 1013.0 |
| 20260502090556 | 12 | 36 | 11.3 | 19.3 | 0.00 | 0.00 | 0.00 | 86 | 1013.0 |
| 20260502071056 | 13 | 9 | 8.0 | 14.5 | 0.00 | 0.00 | 0.00 | 90 | 1013.0 |
| 20260502070556 | 13 | 306 | 3.2 | 14.5 | 0.00 | 0.00 | 0.00 | 90 | 1013.0 |
| 20260502070056 | 13 | 10 | 4.8 | 14.5 | 0.00 | 0.00 | 0.00 | 90 | 1013.0 |
| 20260502065556 | 13 | 11 | 4.8 | 11.3 | 0.00 | 0.00 | 0.00 | 91 | 1013.0 |
| 20260502065056 | 13 | 9 | 6.4 | 17.7 | 0.00 | 0.00 | 0.00 | 92 | 1013.0 |
| 20260502064556 | 13 | 353 | 11.3 | 19.3 | 0.00 | 0.00 | 0.00 | 92 | 1013.0 |
| 20260502064056 | 13 | 4 | 8.0 | 16.1 | 0.00 | 0.00 | 0.00 | 92 | 1013.0 |
| 20260502063557 | 13 | 331 | 9.7 | 14.5 | 0.00 | 0.00 | 0.00 | 92 | 1013.0 |
| 20260502063057 | 13 | 347 | 6.4 | 8.0 | 0.00 | 0.00 | 0.00 | 92 | 1013.0 |
| 20260502062556 | 13 | 19 | 3.2 | 14.5 | 0.00 | 0.00 | 0.00 | 92 | 1013.0 |
| 20260502062056 | 13 | 359 | 11.3 | 20.9 | 0.00 | 0.00 | 0.00 | 92 | 1013.0 |
| 20260502061557 | 13 | 14 | 12.9 | 17.7 | 0.00 | 0.00 | 0.00 | 92 | 1013.0 |
| 20260502061057 | 13 | 337 | 4.8 | 14.5 | 0.00 | 0.00 | 0.00 | 92 | 1013.0 |
| 20260502060556 | 13 | 341 | 4.8 | 12.9 | 0.00 | 0.00 | 0.00 | 92 | 1013.0 |
| 20260502060056 | 13 | 358 | 14.5 | 22.5 | 0.00 | 0.00 | 0.00 | 92 | 1013.0 |
| 20260502055556 | 13 | 5 | 4.8 | 9.7 | 0.00 | 0.00 | 0.00 | 91 | 1013.0 |
| 20260502055057 | 13 | 28 | 4.8 | 17.7 | 0.00 | 0.00 | 0.00 | 91 | 1013.0 |
| 20260502054556 | 13 | 45 | 11.3 | 19.3 | 0.00 | 0.00 | 0.00 | 92 | 1013.0 |
| 20260502054056 | 13 | 1 | 6.4 | 25.7 | 0.00 | 0.00 | 0.00 | 92 | 1013.0 |
| 20260502053556 | 13 | 4 | 6.4 | 14.5 | 0.00 | 0.00 | 0.00 | 92 | 1013.0 |
| 20260502053056 | 13 | 18 | 17.7 | 24.1 | 0.00 | 0.00 | 0.00 | 93 | 1013.0 |
| 20260502052556 | 13 | 18 | 14.5 | 19.3 | 0.00 | 0.00 | 0.00 | 93 | 1013.0 |
| 20260502052056 | 13 | 338 | 6.4 | 20.9 | 0.00 | 0.00 | 0.00 | 94 | 1013.0 |
| 20260502051556 | 13 | 6 | 14.5 | 20.9 | 0.00 | 0.00 | 0.00 | 94 | 1013.0 |
| 20260502051058 | 13 | 12 | 11.3 | 20.9 | 0.00 | 0.00 | 0.00 | 95 | 1013.0 |
| 20260502050557 | 13 | 339 | 16.1 | 24.1 | 0.00 | 0.00 | 0.00 | 95 | 1013.0 |
| 20260502050056 | 13 | 352 | 16.1 | 17.7 | 0.00 | 0.00 | 0.00 | 95 | 1013.0 |
| 20260502045556 | 13 | 359 | 6.4 | 20.9 | 0.00 | 0.00 | 0.00 | 95 | 1013.0 |
| 20260502045057 | 13 | 305 | 3.2 | 12.9 | 0.00 | 0.00 | 0.00 | 95 | 1013.0 |
| 20260502044556 | 13 | 359 | 8.0 | 22.5 | 0.00 | 0.00 | 0.00 | 95 | 1013.0 |
| 20260502044056 | 13 | 334 | 12.9 | 17.7 | 0.00 | 0.00 | 0.00 | 96 | 1013.0 |
| 20260502043556 | 13 | 15 | 16.1 | 19.3 | 0.00 | 0.00 | 0.00 | 96 | 1013.0 |
| 20260502043057 | 13 | 51 | 8.0 | 17.7 | 0.00 | 0.00 | 0.00 | 96 | 1013.0 |
| 20260502042557 | 13 | 302 | 8.0 | 20.9 | 0.00 | 0.00 | 0.00 | 96 | 1013.0 |
| 20260502042056 | 13 | 27 | 11.3 | 12.9 | 0.00 | 0.00 | 0.00 | 96 | 1013.0 |
| 20260502041556 | 13 | 349 | 11.3 | 17.7 | 0.00 | 0.00 | 0.00 | 96 | 1013.0 |
| 20260502041057 | 13 | 18 | 14.5 | 17.7 | 0.00 | 0.00 | 0.00 | 96 | 1013.0 |
| 20260502040556 | 13 | 13 | 6.4 | 14.5 | 0.00 | 0.00 | 0.00 | 96 | 1013.0 |
| 20260502040056 | 13 | 351 | 4.8 | 12.9 | 0.00 | 0.00 | 0.00 | 96 | 1013.0 |
| 20260502035556 | 13 | 24 | 12.9 | 16.1 | 0.00 | 0.00 | 0.00 | 96 | 1013.0 |
| 20260502035056 | 13 | 339 | 4.8 | 16.1 | 0.00 | 0.00 | 0.00 | 96 | 1012.0 |
| 20260502034556 | 13 | 347 | 8.0 | 12.9 | 0.00 | 0.00 | 0.00 | 96 | 1012.0 |
| 20260502034056 | 13 | 335 | 6.4 | 20.9 | 0.00 | 0.00 | 0.00 | 97 | 1012.0 |
| 20260502033556 | 13 | 359 | 8.0 | 24.1 | 0.00 | 0.00 | 0.00 | 97 | 1012.0 |
| 20260502033057 | 13 | 349 | 3.2 | 22.5 | 0.00 | 0.00 | 0.00 | 97 | 1012.0 |
| 20260502032556 | 13 | 359 | 14.5 | 20.9 | 0.00 | 0.00 | 0.00 | 97 | 1012.0 |
| 20260502032058 | 13 | 358 | 8.0 | 12.9 | 0.00 | 0.00 | 0.00 | 97 | 1011.0 |
| 20260502031556 | 13 | 355 | 8.0 | 16.1 | 0.00 | 0.00 | 0.00 | 97 | 1011.0 |
| 20260502031057 | 13 | 27 | 14.5 | 22.5 | 0.00 | 0.00 | 0.00 | 97 | 1011.0 |
| 20260502030556 | 13 | 346 | 8.0 | 24.1 | 0.00 | 0.00 | 0.00 | 97 | 1011.0 |
| 20260502030100 | 13 | 300 | 12.9 | 16.1 | 0.00 | 0.00 | 0.00 | 97 | 1011.0 |
| 20260502025557 | 13 | 23 | 8.0 | 25.7 | 0.00 | 0.00 | 0.00 | 97 | 1010.0 |
| 20260502025056 | 13 | 17 | 4.8 | 25.7 | 0.00 | 0.00 | 0.00 | 97 | 1010.0 |
| 20260502024557 | 14 | 19 | 11.3 | 22.5 | 0.00 | 0.00 | 0.00 | 97 | 1011.0 |
| 20260502024056 | 14 | 10 | 9.7 | 11.3 | 0.00 | 0.00 | 0.00 | 97 | 1011.0 |
| 20260502023557 | 14 | 37 | 4.8 | 25.7 | 0.00 | 0.00 | 0.00 | 97 | 1011.0 |
| 20260502023056 | 14 | 9 | 14.5 | 24.1 | 0.00 | 0.00 | 0.00 | 98 | 1011.0 |
| 20260502022556 | 15 | 5 | 9.7 | 16.1 | 0.00 | 0.00 | 0.00 | 98 | 1011.0 |
| 20260502022056 | 15 | 355 | 4.8 | 9.7 | 0.00 | 0.00 | 0.00 | 98 | 1011.0 |
| 20260502021557 | 15 | 319 | 8.0 | 14.5 | 0.00 | 0.00 | 0.00 | 98 | 1011.0 |
| 20260502021056 | 15 | 306 | 14.5 | 16.1 | 0.00 | 0.00 | 0.00 | 98 | 1011.0 |
| 20260502020556 | 15 | 328 | 4.8 | 11.3 | 0.00 | 0.00 | 0.00 | 98 | 1011.0 |
| 20260502020056 | 15 | 356 | 9.7 | 14.5 | 0.00 | 0.00 | 0.00 | 98 | 1011.0 |
| 20260502015557 | 15 | 349 | 9.7 | 14.5 | 0.00 | 0.00 | 0.00 | 98 | 1011.0 |
| 20260502015056 | 15 | 350 | 3.2 | 17.7 | 0.00 | 0.00 | 0.00 | 98 | 1011.0 |
| 20260502014556 | 15 | 5 | 6.4 | 16.1 | 0.00 | 0.00 | 0.00 | 98 | 1010.0 |
| 20260502014056 | 15 | 16 | 17.7 | 22.5 | 0.00 | 0.00 | 0.00 | 98 | 1010.0 |
| 20260502013556 | 15 | 345 | 8.0 | 14.5 | 0.00 | 0.00 | 0.00 | 98 | 1010.0 |
| 20260502013056 | 15 | 315 | 4.8 | 16.1 | 0.00 | 0.00 | 0.00 | 98 | 1010.0 |
| 20260502012556 | 15 | 344 | 8.0 | 17.7 | 0.00 | 0.00 | 0.00 | 98 | 1009.0 |
| 20260502012056 | 15 | 332 | 17.7 | 17.7 | 0.00 | 0.00 | 0.00 | 98 | 1009.0 |
| 20260502011556 | 15 | 1 | 11.3 | 17.7 | 0.00 | 0.00 | 0.00 | 98 | 1010.0 |
| 20260502011057 | 15 | 9 | 8.0 | 17.7 | 0.00 | 0.00 | 0.00 | 98 | 1010.0 |
| 20260502010556 | 15 | 295 | 3.2 | 9.7 | 0.00 | 0.00 | 0.00 | 98 | 1009.0 |
| 20260502010056 | 15 | 4 | 12.9 | 12.9 | 0.00 | 0.00 | 0.00 | 98 | 1009.0 |
| 20260502005556 | 15 | 350 | 16.1 | 20.9 | 0.00 | 0.00 | 0.00 | 98 | 1008.0 |
| 20260502005057 | 15 | 0 | 12.9 | 16.1 | 0.00 | 0.00 | 0.00 | 98 | 1008.0 |
| 20260502004556 | 15 | 2 | 4.8 | 11.3 | 0.00 | 0.00 | 0.00 | 98 | 1008.0 |
| 20260502004100 | 15 | 14 | 4.8 | 16.1 | 0.00 | 0.00 | 0.00 | 97 | 1008.0 |
| 20260502003556 | 15 | 42 | 12.9 | 17.7 | 0.00 | 0.00 | 0.00 | 97 | 1008.0 |
| 20260502003057 | 15 | 312 | 3.2 | 17.7 | 0.00 | 0.00 | 0.00 | 97 | 1008.0 |
| 20260502002558 | 15 | 31 | 11.3 | 16.1 | 0.00 | 0.00 | 0.00 | 97 | 1009.0 |
| 20260502002057 | 15 | 343 | 16.1 | 20.9 | 0.00 | 0.00 | 0.00 | 97 | 1009.0 |
| 20260502001556 | 15 | 338 | 8.0 | 20.9 | 0.00 | 0.00 | 0.00 | 97 | 1008.0 |
| 20260502001056 | 15 | 5 | 8.0 | 19.3 | 0.00 | 0.00 | 0.00 | 97 | 1008.0 |
| 20260502000556 | 15 | 340 | 6.4 | 16.1 | 0.00 | 0.00 | 0.00 | 97 | 1008.0 |
| 20260502000056 | 15 | 9 | 8.0 | 20.9 | 0.00 | 0.00 | 0.00 | 97 | 1008.0 |
| 20260501235556 | 15 | 10 | 11.3 | 17.7 | 0.00 | 0.00 | 0.00 | 97 | 1008.0 |
| 20260501235056 | 15 | 349 | 11.3 | 20.9 | 0.00 | 0.00 | 0.00 | 97 | 1008.0 |
| 20260501234557 | 15 | 27 | 6.4 | 14.5 | 0.00 | 0.00 | 0.00 | 97 | 1007.0 |
| 20260501234056 | 15 | 26 | 12.9 | 24.1 | 0.00 | 0.00 | 0.00 | 97 | 1007.0 |
| 20260501233556 | 15 | 12 | 12.9 | 27.4 | 0.00 | 0.00 | 0.00 | 97 | 1008.0 |
| 20260501233057 | 15 | 350 | 9.7 | 22.5 | 0.00 | 0.00 | 0.00 | 97 | 1007.0 |
| 20260501232557 | 15 | 13 | 19.3 | 25.7 | 0.00 | 0.00 | 0.00 | 97 | 1007.0 |
| 20260501232056 | 16 | 324 | 6.4 | 27.4 | 0.00 | 0.00 | 0.00 | 97 | 1007.0 |
| 20260501231557 | 16 | 0 | 12.9 | 22.5 | 0.00 | 0.00 | 0.00 | 98 | 1007.0 |
| 20260501231057 | 16 | 352 | 9.7 | 19.3 | 0.00 | 0.00 | 0.00 | 98 | 1007.0 |
| 20260501230556 | 16 | 349 | 11.3 | 22.5 | 0.00 | 0.00 | 0.00 | 98 | 1007.0 |
| 20260501230056 | 16 | 352 | 11.3 | 17.7 | 0.00 | 0.00 | 0.00 | 98 | 1007.0 |
| 20260501225556 | 16 | 9 | 9.7 | 19.3 | 0.00 | 0.00 | 0.00 | 98 | 1007.0 |
| 20260501225056 | 16 | 21 | 6.4 | 16.1 | 0.00 | 0.00 | 0.00 | 98 | 1007.0 |
| 20260501224556 | 16 | 36 | 9.7 | 17.7 | 0.00 | 0.00 | 0.00 | 98 | 1008.0 |
| 20260501224056 | 16 | 28 | 11.3 | 14.5 | 0.00 | 0.00 | 0.00 | 98 | 1008.0 |
| 20260501223557 | 16 | 44 | 20.9 | 20.9 | 0.00 | 0.00 | 0.00 | 98 | 1007.0 |
| 20260501223056 | 16 | 11 | 16.1 | 16.1 | 0.00 | 0.00 | 0.00 | 98 | 1007.0 |
| 20260501222556 | 16 | 353 | 4.8 | 14.5 | 0.00 | 0.00 | 0.00 | 98 | 1007.0 |
| 20260501222056 | 16 | 98 | 4.8 | 11.3 | 0.00 | 0.00 | 0.00 | 98 | 1007.0 |
| 20260501221557 | 16 | 33 | 6.4 | 16.1 | 0.00 | 0.00 | 0.00 | 98 | 1007.0 |
| 20260501221056 | 16 | 29 | 8.0 | 14.5 | 0.00 | 0.00 | 0.00 | 98 | 1008.0 |
| 20260501220556 | 16 | 28 | 8.0 | 14.5 | 0.00 | 0.00 | 0.00 | 98 | 1008.0 |
| 20260501220056 | 16 | 21 | 9.7 | 19.3 | 0.00 | 0.00 | 0.00 | 98 | 1008.0 |
| 20260501215135 | 16 | 6 | 4.8 | 11.3 | 0.00 | 0.00 | 0.00 | 98 | 1008.0 |
| 20260501214557 | 16 | 23 | 3.2 | 11.3 | 0.00 | 0.00 | 0.00 | 98 | 1008.0 |
| 20260501214056 | 16 | 59 | 4.8 | 8.0 | 0.00 | 0.00 | 0.00 | 98 | 1008.0 |
| 20260501213557 | 16 | 26 | 8.0 | 12.9 | 0.00 | 0.00 | 0.00 | 98 | 1007.0 |
| 20260501213056 | 16 | 347 | 4.8 | 6.4 | 0.00 | 0.00 | 0.00 | 98 | 1007.0 |
| 20260501212557 | 17 | 19 | 11.3 | 11.3 | 0.00 | 0.00 | 0.00 | 98 | 1007.0 |
| 20260501212056 | 16 | 354 | 4.8 | 4.8 | 0.00 | 0.00 | 0.00 | 98 | 1007.0 |
| 20260501211557 | 17 | 45 | 8.0 | 19.3 | 0.00 | 0.00 | 0.00 | 98 | 1007.0 |
| 20260501211056 | 17 | 43 | 3.2 | 11.3 | 0.00 | 0.00 | 0.00 | 98 | 1006.0 |
| 20260501210556 | 17 | 4 | 16.1 | 17.7 | 0.00 | 0.00 | 0.00 | 98 | 1008.0 |
| 20260501210056 | 17 | 15 | 3.2 | 11.3 | 0.00 | 0.00 | 0.00 | 98 | 1007.0 |
| 20260501205557 | 17 | 28 | 9.7 | 12.9 | 0.00 | 0.00 | 0.00 | 98 | 1007.0 |
| 20260501205056 | 17 | 13 | 4.8 | 12.9 | 0.00 | 0.00 | 0.00 | 98 | 1007.0 |
| 20260501204556 | 17 | 86 | 6.4 | 11.3 | 0.00 | 0.00 | 0.00 | 98 | 1007.0 |
| 20260501204057 | 17 | 10 | 6.4 | 16.1 | 0.00 | 0.00 | 0.00 | 98 | 1007.0 |
| 20260501203556 | 17 | 347 | 8.0 | 14.5 | 0.00 | 0.00 | 0.00 | 98 | 1006.0 |
| 20260501203056 | 17 | 39 | 6.4 | 14.5 | 0.00 | 0.00 | 0.00 | 98 | 1006.0 |
| 20260501202557 | 17 | 6 | 3.2 | 9.7 | 0.00 | 0.00 | 0.00 | 98 | 1006.0 |
| 20260501202057 | 17 | 49 | 4.8 | 8.0 | 0.00 | 0.00 | 0.00 | 98 | 1006.0 |
| 20260501201556 | 17 | 77 | 3.2 | 11.3 | 0.00 | 0.00 | 0.00 | 98 | 1006.0 |
| 20260501201057 | 17 | 4 | 6.4 | 20.9 | 0.00 | 0.00 | 0.00 | 98 | 1006.0 |
| 20260501200557 | 17 | 340 | 3.2 | 11.3 | 0.00 | 0.00 | 0.00 | 98 | 1006.0 |
| 20260501200056 | 17 | 15 | 4.8 | 9.7 | 0.00 | 0.00 | 0.00 | 98 | 1007.0 |
| 20260501195556 | 17 | 65 | 1.6 | 11.3 | 0.00 | 0.00 | 0.00 | 98 | 1007.0 |
| 20260501195057 | 17 | 46 | 4.8 | 8.0 | 0.00 | 0.00 | 0.00 | 98 | 1007.0 |
| 20260501194558 | 17 | 16 | 6.4 | 9.7 | 0.00 | 0.00 | 0.00 | 98 | 1006.0 |
| 20260501193609 | 17 | 30 | 9.7 | 16.1 | 0.00 | 0.00 | 0.00 | 98 | 1006.0 |
| 20260501193056 | 17 | 120 | 6.4 | 22.5 | 0.00 | 0.00 | 0.00 | 98 | 1006.0 |
| 20260501192556 | 17 | 74 | 6.4 | 11.3 | 0.00 | 0.00 | 0.00 | 98 | 1005.0 |
| 20260501192056 | 17 | 56 | 9.7 | 22.5 | 0.00 | 0.00 | 0.00 | 98 | 1005.0 |
| 20260501191557 | 17 | 50 | 4.8 | 22.5 | 0.00 | 0.00 | 0.00 | 97 | 1006.0 |
| 20260501191056 | 17 | 8 | 9.7 | 17.7 | 0.00 | 0.00 | 0.00 | 97 | 1006.0 |
| 20260501190556 | 17 | 18 | 6.4 | 12.9 | 0.00 | 0.00 | 0.00 | 98 | 1006.0 |
| 20260501190058 | 17 | 13 | 14.5 | 20.9 | 0.00 | 0.00 | 0.00 | 98 | 1008.0 |
| 20260501185556 | 17 | 317 | 9.7 | 19.3 | 0.00 | 0.00 | 0.00 | 98 | 1007.0 |
| 20260501185056 | 17 | 53 | 8.0 | 16.1 | 0.00 | 0.00 | 0.00 | 98 | 1007.0 |
| 20260501184557 | 17 | 128 | 8.0 | 12.9 | 0.00 | 0.00 | 0.00 | 98 | 1006.0 |
| 20260501184056 | 17 | 162 | 4.8 | 8.0 | 0.00 | 0.00 | 0.00 | 98 | 1007.0 |
| 20260501183556 | 17 | 300 | 3.2 | 25.7 | 0.00 | 0.00 | 0.00 | 98 | 1006.0 |
| 20260501183056 | 17 | 348 | 8.0 | 20.9 | 0.00 | 0.00 | 0.00 | 98 | 1007.0 |